Flag for U.S.A. Weather past 2 weeks in Racine, Wisconsin, U.S.A.

Now
73 °F

Clear.


Feels Like: 71 °F
Forecast: 69 / 79 °F
Wind: 15 mph from South

Location: Batten International Airport

Current Time: Aug 30, 2014 at 1:57:40 AM

Latest Report: Aug 30, 2014 at 12:53 AM


Visibility: 9 mi

Pressure: 29.85 "Hg

Humidity: 88%

Dew point: 69 °F

Location of RacineLocation

Historic Weather in Racine — Graph

°F

Racine temperature yesterday

Maximum temperature yesterday: 77 °F (at 12:53 PM)
Minimum temperature yesterday: 70 °F (at 12:53 AM)
Average temperature yesterday: 73 °F

Past Weeks' High & Low Weather Summary

 TemperatureHumidityPressure
High83 °F (Aug 16, 1:53 PM)97% (Aug 22, 4:53 AM)30.22 "Hg (Aug 22, 4:53 AM)
Low54 °F (Aug 15, 5:53 AM)43% (Aug 15, 2:53 PM)29.67 "Hg (Aug 19, 1:53 PM)
Average71 °F81%29.97 "Hg
* Reported Aug 15 12:53 AM — Aug 30 12:53 AM, Racine, Weather by CustomWeather, © 2014

Note: Actual official high and low records may vary slightly from our data, if they occured in-between our weather recording intervals... More about our weather records

Advertising

Racine weather history for previous 24 hours

 ConditionsComfort  
Time TempWeatherWind HumidityBarometerVisibility
12:53 AM
Aug 30
73 °FClear.15 mph88%29.85 "Hg9 mi
11:53 PM
Aug 29
73 °FClear.10 mph88%29.85 "Hg9 mi
10:53 PM74 °FThundershowers. Clear.13 mph85%29.87 "Hg10 mi
9:53 PM75 °FClear.12 mph82%29.88 "Hg10 mi
8:53 PM75 °FClear.14 mph88%29.88 "Hg8 mi
7:53 PM75 °FPassing clouds.14 mph85%29.87 "Hg7 mi
6:53 PM75 °FSunny.13 mph88%29.87 "Hg7 mi
5:53 PM77 °FSunny.15 mph79%29.88 "Hg8 mi
4:53 PM76 °FSunny.15 mph82%29.88 "Hg8 mi
3:53 PM76 °FSunny.14 mph82%29.89 "Hg8 mi
1:53 PM77 °FSunny.12 mph77%29.93 "Hg8 mi
12:53 PM77 °FSunny.12 mph77%29.95 "Hg9 mi
11:53 AM73 °FSunny.12 mph88%29.96 "Hg7 mi
10:53 AM72 °FLight rain. Fog.9 mph91%29.98 "Hg6 mi
10:03 AM71 °FThundershowers. Fog.10 mph90%29.99 "Hg6 mi
9:53 AM71 °FLight rain. Fog.10 mph87%29.98 "Hg4 mi
8:53 AM73 °FOvercast.8 mph81%29.99 "Hg10 mi
7:53 AM72 °FLight rain. Scattered clouds.12 mph84%29.98 "Hg10 mi
6:53 AM71 °FPassing clouds.10 mph87%29.98 "Hg10 mi
5:53 AM71 °FPartly cloudy.9 mph87%29.98 "Hg10 mi
4:53 AM71 °FClear.14 mph84%29.98 "Hg10 mi
3:53 AM71 °FPassing clouds.10 mph87%29.98 "Hg10 mi
2:53 AM70 °FClear.9 mph87%29.98 "Hg10 mi
1:53 AM70 °FClear.7 mph84%30.00 "Hg10 mi
Weather by CustomWeather, © 2014

See weather overviewHow to use our weather pages